User: anonymous   Login
Location: Ammerl�gen
(47.2167°N, 9.6000°E)
Time: 01:45:29
(UTC+00:00)
Language:

Iridium 4 Rocket - Orbit

View from above orbital plane
View from above orbital plane
View from above satellite
View from above satellite

Ground track
Ground track

The orbit data is extracted from the following two-line orbital elements,

1 24797U 97020F   21337.46662236  .00000212  00000-0  40946-4 0  9990
2 24797  86.8939 116.2913 0222587 280.6621 140.2514 14.44299319293195
Epoch (UTC): 03 December 2021 11:11:56
Eccentricity: 0.0222587
inclination: 86.8939°
perigee height: 586 km
apogee height: 903 km
right ascension of ascending node: 116.2913°
argument of perigee: 280.6621°
revolutions per day: 14.44299319
mean anomaly at epoch: 140.2514°
orbit number at epoch: 29319

The dashed part of the orbit path shows where the satellite is in the earth's shadow,  

DLR